Stündliche Wetter Warka

Heute, 23 Oktober, Freitag

Zeit Temperatur Niederschläge Wind Luftdruck Luftfeuchtigkeit
00:00 +12°C° 0 mm 3 m/S 751 mmHg 80%
01:00 +11°C° 0 mm 3 m/S 751 mmHg 80%
02:00 +11°C° 0 mm 3 m/S 751 mmHg 80%
03:00 +11°C° 0 mm 3 m/S 751 mmHg 80%
04:00 +11°C° 0 mm 3 m/S 750 mmHg 80%
05:00 +11°C° 0 mm 4 m/S 750 mmHg 79%
06:00 +12°C° 0 mm 4 m/S 750 mmHg 78%
07:00 +12°C° 0 mm 4 m/S 750 mmHg 76%
08:00 +12°C° 0 mm 4 m/S 750 mmHg 76%
09:00 +13°C° 0 mm 4 m/S 750 mmHg 75%
10:00 +13°C° 0 mm 4 m/S 750 mmHg 75%
11:00 +14°C° 0 mm 3 m/S 750 mmHg 75%
12:00 +14°C° 0 mm 3 m/S 749 mmHg 75%
13:00 +14°C° 0 mm 3 m/S 749 mmHg 75%
14:00 +13°C° 0 mm 4 m/S 748 mmHg 86%
15:00 +14°C° 0 mm 3 m/S 748 mmHg 80%
16:00 +16°C° 0 mm 2 m/S 749 mmHg 74%
17:00 +15°C° 0 mm 2 m/S 749 mmHg 75%
18:00 +15°C° 0 mm 2 m/S 749 mmHg 77%
19:00 +15°C° 0 mm 2 m/S 749 mmHg 78%
20:00 +15°C° 0 mm 2 m/S 749 mmHg 80%
21:00 +14°C° 0 mm 2 m/S 749 mmHg 81%
22:00 +14°C° 0 mm 2 m/S 749 mmHg 83%
23:00 +14°C° 0.1 mm 2 m/S 748 mmHg 84%

Morgen, 24 Oktober, Samstag

Zeit Temperatur Niederschläge Wind Luftdruck Luftfeuchtigkeit
00:00 +14°C° 0.1 mm 2 m/S 748 mmHg 85%
01:00 +14°C° 0.1 mm 2 m/S 748 mmHg 86%
02:00 +14°C° 0.1 mm 2 m/S 748 mmHg 86%
03:00 +13°C° 0.1 mm 3 m/S 748 mmHg 86%
04:00 +13°C° 0.1 mm 3 m/S 748 mmHg 86%
05:00 +13°C° 1.1 mm 3 m/S 748 mmHg 89%
06:00 +13°C° 1.1 mm 3 m/S 749 mmHg 92%
07:00 +13°C° 1.1 mm 4 m/S 749 mmHg 95%
08:00 +13°C° 0.3 mm 4 m/S 749 mmHg 91%
09:00 +13°C° 0.3 mm 3 m/S 749 mmHg 86%
10:00 +14°C° 0.3 mm 3 m/S 750 mmHg 82%
11:00 +14°C° 0 mm 3 m/S 750 mmHg 77%
12:00 +16°C° 0 mm 3 m/S 750 mmHg 71%
13:00 +17°C° 0 mm 3 m/S 751 mmHg 66%
14:00 +16°C° 0 mm 3 m/S 751 mmHg 70%
15:00 +16°C° 0 mm 3 m/S 751 mmHg 73%
16:00 +14°C° 0 mm 3 m/S 751 mmHg 76%
17:00 +13°C° 0 mm 3 m/S 751 mmHg 80%
18:00 +13°C° 0 mm 3 m/S 752 mmHg 84%
19:00 +13°C° 0 mm 2 m/S 752 mmHg 88%
20:00 +12°C° 0 mm 2 m/S 753 mmHg 89%
21:00 +12°C° 0 mm 2 m/S 753 mmHg 90%
22:00 +12°C° 0 mm 2 m/S 753 mmHg 91%
23:00 +10°C° 0 mm 2 m/S 753 mmHg 92%

übermorgen, 25 Oktober, Sonntag

Zeit Temperatur Niederschläge Wind Luftdruck Luftfeuchtigkeit
00:00 +10°C° 0 mm 2 m/S 753 mmHg 92%
01:00 +10°C° 0 mm 2 m/S 753 mmHg 93%
02:00 +9°C° 0 mm 2 m/S 753 mmHg 93%
03:00 +10°C° 0 mm 1 m/S 754 mmHg 93%
04:00 +10°C° 0 mm 1 m/S 754 mmHg 93%
05:00 +9°C° 0 mm 2 m/S 754 mmHg 93%
06:00 +9°C° 0 mm 2 m/S 754 mmHg 93%
07:00 +9°C° 0 mm 2 m/S 754 mmHg 94%
08:00 +12°C° 0 mm 2 m/S 754 mmHg 87%
09:00 +13°C° 0 mm 2 m/S 754 mmHg 81%
10:00 +15°C° 0 mm 2 m/S 754 mmHg 75%
11:00 +16°C° 0 mm 2 m/S 754 mmHg 71%
12:00 +16°C° 0 mm 2 m/S 753 mmHg 67%
13:00 +17°C° 0 mm 2 m/S 753 mmHg 63%
14:00 +16°C° 0 mm 2 m/S 753 mmHg 67%
15:00 +15°C° 0 mm 2 m/S 753 mmHg 71%
16:00 +14°C° 0 mm 3 m/S 752 mmHg 75%
17:00 +13°C° 0 mm 3 m/S 752 mmHg 79%
18:00 +12°C° 0 mm 3 m/S 752 mmHg 82%
19:00 +11°C° 0 mm 3 m/S 752 mmHg 86%
20:00 +11°C° 0 mm 3 m/S 752 mmHg 87%
21:00 +10°C° 0 mm 3 m/S 752 mmHg 89%
22:00 +10°C° 0 mm 3 m/S 752 mmHg 91%
23:00 +10°C° 0 mm 4 m/S 751 mmHg 91%

, 26 Oktober, Montag

Zeit Temperatur Niederschläge Wind Luftdruck Luftfeuchtigkeit
00:00 +10°C° 0 mm 4 m/S 751 mmHg 90%
01:00 +10°C° 0 mm 4 m/S 751 mmHg 90%
02:00 +8°C° 0 mm 4 m/S 750 mmHg 90%
03:00 +8°C° 0 mm 4 m/S 750 mmHg 89%
04:00 +8°C° 0 mm 4 m/S 750 mmHg 88%
05:00 +8°C° 0 mm 5 m/S 750 mmHg 88%
06:00 +8°C° 0 mm 5 m/S 749 mmHg 89%
07:00 +7°C° 0 mm 5 m/S 749 mmHg 89%
08:00 +9°C° 0 mm 5 m/S 749 mmHg 85%
09:00 +10°C° 0 mm 5 m/S 748 mmHg 81%
10:00 +12°C° 0 mm 5 m/S 748 mmHg 77%
11:00 +12°C° 0 mm 5 m/S 748 mmHg 78%
12:00 +13°C° 0 mm 5 m/S 747 mmHg 79%
13:00 +13°C° 0 mm 5 m/S 747 mmHg 80%
14:00 +13°C° 0 mm 5 m/S 747 mmHg 79%
15:00 +14°C° 0 mm 5 m/S 746 mmHg 79%
16:00 +14°C° 0 mm 5 m/S 746 mmHg 79%
17:00 +13°C° 0 mm 5 m/S 746 mmHg 81%
18:00 +13°C° 0 mm 5 m/S 746 mmHg 83%
19:00 +12°C° 0 mm 5 m/S 746 mmHg 85%
20:00 +12°C° 0 mm 5 m/S 746 mmHg 85%
21:00 +12°C° 0 mm 5 m/S 746 mmHg 85%
22:00 +12°C° 0 mm 5 m/S 746 mmHg 85%
23:00 +10°C° 0 mm 5 m/S 746 mmHg 86%

26 Oktober, Montag

Zeit Temperatur Niederschläge Wind Luftdruck Luftfeuchtigkeit
00:00 +10°C° 0 mm 4 m/S 751 mmHg 90%
01:00 +10°C° 0 mm 4 m/S 751 mmHg 90%
02:00 +8°C° 0 mm 4 m/S 750 mmHg 90%
03:00 +8°C° 0 mm 4 m/S 750 mmHg 89%
04:00 +8°C° 0 mm 4 m/S 750 mmHg 88%
05:00 +8°C° 0 mm 5 m/S 750 mmHg 88%
06:00 +8°C° 0 mm 5 m/S 749 mmHg 89%
07:00 +7°C° 0 mm 5 m/S 749 mmHg 89%
08:00 +9°C° 0 mm 5 m/S 749 mmHg 85%
09:00 +10°C° 0 mm 5 m/S 748 mmHg 81%
10:00 +12°C° 0 mm 5 m/S 748 mmHg 77%
11:00 +12°C° 0 mm 5 m/S 748 mmHg 78%
12:00 +13°C° 0 mm 5 m/S 747 mmHg 79%
13:00 +13°C° 0 mm 5 m/S 747 mmHg 80%
14:00 +13°C° 0 mm 5 m/S 747 mmHg 79%
15:00 +14°C° 0 mm 5 m/S 746 mmHg 79%
16:00 +14°C° 0 mm 5 m/S 746 mmHg 79%
17:00 +13°C° 0 mm 5 m/S 746 mmHg 81%
18:00 +13°C° 0 mm 5 m/S 746 mmHg 83%
19:00 +12°C° 0 mm 5 m/S 746 mmHg 85%
20:00 +12°C° 0 mm 5 m/S 746 mmHg 85%
21:00 +12°C° 0 mm 5 m/S 746 mmHg 85%
22:00 +12°C° 0 mm 5 m/S 746 mmHg 85%
23:00 +10°C° 0 mm 5 m/S 746 mmHg 86%

27 Oktober, Dienstag

Zeit Temperatur Niederschläge Wind Luftdruck Luftfeuchtigkeit
00:00 +10°C° 0 mm 5 m/S 746 mmHg 87%
01:00 +11°C° 0 mm 4 m/S 746 mmHg 88%
02:00 +11°C° 0 mm 4 m/S 746 mmHg 89%
03:00 +11°C° 0 mm 4 m/S 746 mmHg 90%
04:00 +11°C° 0 mm 4 m/S 746 mmHg 90%
05:00 +11°C° 0 mm 4 m/S 746 mmHg 90%
06:00 +10°C° 0 mm 5 m/S 746 mmHg 89%
07:00 +10°C° 0 mm 5 m/S 747 mmHg 88%
08:00 +12°C° 0 mm 5 m/S 747 mmHg 84%
09:00 +14°C° 0 mm 5 m/S 747 mmHg 79%
10:00 +15°C° 0 mm 5 m/S 747 mmHg 74%
11:00 +16°C° 0 mm 5 m/S 747 mmHg 72%
12:00 +17°C° 0 mm 4 m/S 748 mmHg 69%
13:00 +18°C° 0 mm 4 m/S 748 mmHg 66%
14:00 +17°C° 0 mm 4 m/S 748 mmHg 69%
15:00 +17°C° 0 mm 3 m/S 748 mmHg 73%
16:00 +16°C° 0 mm 3 m/S 748 mmHg 76%
17:00 +14°C° 0 mm 3 m/S 748 mmHg 78%
18:00 +14°C° 0 mm 3 m/S 749 mmHg 80%
19:00 +13°C° 0 mm 3 m/S 749 mmHg 82%
20:00 +13°C° 0 mm 3 m/S 749 mmHg 83%
21:00 +12°C° 0 mm 3 m/S 749 mmHg 84%
22:00 +13°C° 0 mm 2 m/S 750 mmHg 86%
23:00 +13°C° 0 mm 2 m/S 750 mmHg 87%

28 Oktober, Mittwoch

Zeit Temperatur Niederschläge Wind Luftdruck Luftfeuchtigkeit
00:00 +12°C° 0 mm 2 m/S 750 mmHg 88%
01:00 +12°C° 0 mm 2 m/S 750 mmHg 90%
02:00 +12°C° 0 mm 2 m/S 750 mmHg 90%
03:00 +10°C° 0 mm 2 m/S 750 mmHg 91%
04:00 +10°C° 0 mm 2 m/S 750 mmHg 91%
05:00 +10°C° 0 mm 2 m/S 750 mmHg 91%
06:00 +10°C° 0 mm 2 m/S 750 mmHg 91%
07:00 +11°C° 0 mm 1 m/S 750 mmHg 91%
08:00 +12°C° 0 mm 2 m/S 751 mmHg 86%
09:00 +13°C° 0 mm 2 m/S 751 mmHg 81%
10:00 +15°C° 0 mm 2 m/S 751 mmHg 76%
11:00 +15°C° 0 mm 2 m/S 751 mmHg 74%
12:00 +16°C° 0 mm 3 m/S 751 mmHg 71%
13:00 +16°C° 0 mm 3 m/S 751 mmHg 68%
14:00 +14°C° 0 mm 3 m/S 751 mmHg 70%
15:00 +13°C° 0 mm 3 m/S 751 mmHg 72%
16:00 +13°C° 0 mm 2 m/S 751 mmHg 74%
17:00 +13°C° 0 mm 2 m/S 752 mmHg 75%
18:00 +12°C° 0 mm 2 m/S 752 mmHg 76%
19:00 +12°C° 0 mm 2 m/S 752 mmHg 78%
20:00 +10°C° 0 mm 2 m/S 753 mmHg 80%
21:00 +10°C° 0 mm 2 m/S 753 mmHg 83%
22:00 +10°C° 0 mm 2 m/S 753 mmHg 86%
23:00 +9°C° 0 mm 2 m/S 753 mmHg 88%
Mehr zeigen

Wir brauchen deine Erlaubnis

Meteoprog und unser Service Anbieter werden persönliche Daten aufbewahren, so wie Cookies, Geräte Bezeichnung oder ähnliche Technologien von deinem Gerät und Prozess, so wie Persönliche Daten Inhalte und Werbungen, genauso wie social Media und den Verkehr zu analysieren.

  • Aufbewahrung und/oder Zugang zu deiner Geräte Informationen.

    Cookies, Geräte Bezeichnung oder andere Informationen, können aufbewahrt oder Zugang zu deinem Gerät erhalten, für den Grund, der oben angegeben wird.

  • Personalisierte Werbung und Inhalte, Messungen, Einblick in das Publikum und Produkt Entwicklung.

    Werbungen und Inhalte können personalisiert werden, basierend auf ein Profil. Mehr Daten können besser personalisierte Werbungen und Inhalte hinzufügen. Werbung und Inhalte können gezeigt und gemessen werden. Einblicke über das Publikum, welche die Werbung gesehen haben und den Inhalt, können abgeleitet werden. So wie Daten können genutzt werden, um es zu verbessern oder die Benutzer Erfahrung zu verbessern das System und die Software.

Wenn du “Ich stimme zu” klickst, erlaubst du uns, die Cookies zu benutzen die Geräte Bezeichnung, den Web oder ähnliche Technologien zu benutzen. Deine Settings, können in deinem Gerät bei deinem Browser geändert werden.

Für den bestimmten Zweck, berechtigten Interessen beruhen darauf, mehr als auf den Inhalt. Du kannst mehr darüber in unseren Privaten und Cookie Politik lesen.